Location: Pornichet
(47.2613°N, 2.3364°W)
Time: 03:39:07
(UTC+01:00)

ISS - Visible Passes

Search period start: 16 January 2021 00:00
Search period end: 26 January 2021 00:00
Orbit: 418 x 419 km, 51.6° (Epoch: 16 January)

Date Brightness Start Highest point End Pass type
(mag) Time Alt. Az. Time Alt. Az. Time Alt. Az.
18 Jan -1.4 20:14:49 10° SSW 20:15:55 18° SSW 20:15:55 18° SSW visible
19 Jan -2.3 19:27:33 10° SSW 19:30:17 23° SE 19:30:24 23° SE visible
20 Jan -1.6 18:40:41 10° S 18:42:41 15° SE 18:44:42 10° E visible
20 Jan -2.3 20:15:40 10° WSW 20:17:47 36° SW 20:17:47 36° SW visible
21 Jan -3.5 19:27:59 10° SW 19:31:16 53° SSE 19:32:07 40° E visible
21 Jan -0.2 21:04:52 10° W 21:05:04 11° W 21:05:04 11° W visible
22 Jan -2.8 18:40:28 10° SSW 18:43:33 34° SE 18:46:24 12° E visible
22 Jan -2.5 20:16:56 10° W 20:19:21 40° WNW 20:19:21 40° WNW visible
23 Jan -3.7 19:29:02 10° WSW 19:32:24 75° NNW 19:33:33 38° NE visible
23 Jan -0.3 21:06:20 10° WNW 21:06:30 11° WNW 21:06:30 11° WNW visible
24 Jan -3.7 18:41:13 10° WSW 18:44:34 78° SSE 18:47:44 11° ENE visible
24 Jan -2.2 20:18:21 10° W 20:20:40 32° NW 20:20:40 32° NW visible
25 Jan -3.1 19:30:22 10° W 19:33:38 46° NNW 19:34:49 31° NE visible
25 Jan -0.3 21:07:37 10° WNW 21:07:45 11° WNW 21:07:45 11° WNW visible
